Regional Weather Roundup
Issued by NWS Green Bay, WI

Home | Current Version | Previous Version | Graphics & Text | Print | Product List | Glossary Off
Versions: 1 2 3 4 5 6 7 8 9 10 11 12 13 14 15 16 17 18 19 20 21 22 23 24 25 26 27 28 29 30 31 32 33 34 35 36 37 38 39 40 41 42 43 44 45 46 47 48 49 50

000
ASUS43 KGRB 311359
RWRGRB

NORTH-CENTRAL AND NORTHEAST WISCONSIN REGIONAL WEATHER ROUNDUP
NATIONAL WEATHER SERVICE GREEN BAY WI
800 AM CST SAT JAN 31 2015

WIZ005-009-010>012-018-019-311500-
NORTH CENTRAL WISCONSIN

CITY           SKY/WX    TMP DP  RH WIND       PRES   REMARKS
IRONWOOD       CLOUDY    21  16  79 W8        30.11R
MANITOWISH WTR NOT AVBL
ARBOR VITAE    NOT AVBL
EAGLE RIVER    NOT AVBL
LAND O LAKES   NOT AVBL
RHINELANDER    CLOUDY    19  14  81 NW5       30.09S
PHILLIPS       NOT AVBL
ANTIGO         NOT AVBL
TOMAHAWK       NOT AVBL
MERRILL        NOT AVBL
$$

WIZ013-073-311500-
NORTHEAST WISCONSIN

CITY           SKY/WX    TMP DP  RH WIND       PRES   REMARKS
IRON MOUNTAIN  CLOUDY    20  14  77 W7        30.09S
MARINETTE      CLOUDY    21  10  63 W5        30.14S
$$

WIZ017-030-035>037-045-311500-
CENTRAL WISCONSIN

CITY           SKY/WX    TMP DP  RH WIND       PRES   REMARKS
MEDFORD        NOT AVBL
WAUSAU         CLOUDY    20  12  71 W3        30.11S
MOSINEE        CLOUDY    19  16  86 CALM      30.13S
MARSHFIELD     CLOUDY    22  13  68 W3        30.13R
WISC RAPIDS    CLOUDY    22  14  71 CALM      30.16R
STEVENS POINT  NOT AVBL
WAUPACA        NOT AVBL
SHAWANO        NOT AVBL
CLINTONVILLE   NOT AVBL
$$

WIZ038-039-048-051-311500-
FOX VALLEY

CITY           SKY/WX    TMP DP  RH WIND       PRES   REMARKS
NWS GREEN BAY  CLOUDY    22  17  81 SW3       30.16S
APPLETON       CLOUDY    21  16  79 SW8       30.15S
OSHKOSH        CLOUDY    24  16  71 SW6       30.16R
FOND DU LAC    CLOUDY    22  16  78 SW7       30.17S
$$

WIZ022-050-052-311500-
EAST CENTRAL WISCONSIN

CITY           SKY/WX    TMP DP  RH WIND       PRES   REMARKS
STURGEON BAY   CLOUDY    21  12  68 W7        30.17R
MANITOWOC      NOT AVBL
SHEBOYGAN      CLOUDY    25  17  72 W13       30.17R
$$

LMZ563-521-522-541>543-311500-
LAKESHORE

STATION/POSITION TIME  TEMP    WIND        PRES    VSBY  WAVE
                       AIR SEA DIR/SP/G                  HT/PER
                 (UTC) (F)     (DEG/KT/KT) (MB)    (MI)  (FT/S)
SHEBOYGAN LKSHOR 1300   24     230/  7/  9 1022.8F
KEWAUNEE LKSHORE 1300   24     270/  5/  8 1020.4R
TWO RIVERS CG    1300   23 32              1021.6      6   0
NORTHPORT PIER   1300   21     250/  5/ 11 1020.7R
SISTER BAY LKSHO 1300   21     250/  9/ 11   N/A
CHAMBERS ISLAND  1300   21     240/  4/  8 1021.0R
MENOMINEE LKSHOR 1300   22     250/  9     1021.5R
$$


USA.gov is the U.S. government's official web portal to all federal, state and local government web resources and services.